Wind_Speed
29 28 29 30 30 29 29 29 29 29 29 29 29 30 30 31 31 32 33 34 35 35 34 34 35 35 34 33 33 32 32 32 32 32 32 32 33 33 34 35 37 39 40 40 41 41 41 42 43 44 44 45 46 47 48 49 50 50 51 51 50 50 50 50 50 50 48 46 45 44 44 44 42 41 40 40 40 39 39 40 42 42 42 43 44
31 30 31 32 33 33 33 34 34 34 33 33 33 33 33 33 33 33 33 34 35 36 36 35 36 36 36 36 35 34 33 33 33 33 33 33 34 34 35 35 36 37 38 39 40 40 40 40 42 43 44 45 46 46 47 48 49 50 51 51 52 52 52 52 52 52 50 49 48 48 47 45 44 43 42 42 41 41 41 42 43 43 43 43 44
33 33 33 34 35 36 37 38 38 38 38 38 38 37 37 36 35 34 34 35 35 36 36 36 36 37 37 38 37 36 35 34 34 34 34 35 36 37 37 38 38 38 39 39 40 40 40 40 40 41 43 44 45 46 46 47 48 48 49 50 51 51 52 52 52 52 52 51 51 49 48 47 46 45 44 43 44 45 45 44 44 44 44 44 44
33 34 35 36 36 37 38 39 40 40 41 41 42 42 41 41 39 36 35 35 36 36 36 37 37 38 38 39 40 40 39 39 38 38 38 38 39 39 40 40 41 41 42 42 42 42 42 42 42 43 43 43 44 45 45 46 47 48 48 49 49 49 50 50 50 51 51 51 51 49 48 48 47 46 46 46 47 47 47 46 47 47 47 47 46
34 35 36 37 38 39 40 41 42 42 43 44 45 45 45 44 43 40 38 37 37 38 39 39 40 40 40 41 42 42 42 43 43 43 43 43 43 43 43 43 44 44 45 45 45 45 45 45 45 45 45 45 45 45 45 46 47 47 48 49 50 50 50 49 49 50 49 49 49 48 48 47 46 47 48 48 49 48 48 49 49 49 49 49 49
36 37 39 40 41 41 42 43 44 44 44 45 46 47 47 47 45 43 41 40 40 42 43 44 44 44 45 45 45 46 46 45 46 46 47 47 47 47 47 47 47 47 48 48 49 49 49 48 49 48 48 48 48 48 48 48 48 48 49 49 50 51 51 51 50 50 50 50 49 49 49 48 47 47 48 48 49 49 49 50 50 50 51 50 50
40 41 42 43 43 44 44 44 45 46 46 46 46 47 48 48 47 46 44 43 44 45 47 48 49 50 51 52 52 52 52 50 49 49 49 49 49 50 51 51 52 51 51 51 52 52 52 52 52 52 52 52 52 52 52 52 51 51 51 51 51 52 53 53 52 53 53 52 52 52 52 52 51 51 50 50 50 50 50 51 51 51 52 52 52
45 46 46 46 46 45 45 45 46 46 47 47 47 48 49 49 49 49 47 47 47 49 51 53 54 55 55 56 57 57 57 57 55 54 52 51 52 52 53 54 55 56 56 55 55 55 55 56 56 56 56 56 56 56 57 57 56 56 56 55 55 55 55 56 56 56 56 55 55 55 55 55 56 56 55 54 53 52 52 52 53 53 54 54 54
49 49 49 48 47 46 45 44 45 45 46 47 47 48 49 50 50 50 50 50 51 52 54 56 58 59 59 60 60 61 61 61 61 60 59 57 55 55 56 57 58 59 59 59 59 58 58 59 59 59 59 60 60 60 61 61 61 61 60 60 60 59 59 60 59 59 59 59 59 59 58 58 59 59 60 59 59 57 56 55 56 56 55 55 56
51 50 50 48 46 44 44 43 43 44 44 46 47 48 49 50 51 52 52 52 53 54 56 59 61 62 63 64 64 65 65 65 65 66 65 64 63 60 59 59 60 61 62 62 61 61 61 61 61 62 62 63 63 63 64 65 65 66 65 65 64 64 64 63 63 63 63 63 63 63 63 62 62 62 63 63 63 62 61 59 59 60 58 58 59
54 52 51 50 49 47 46 45 44 43 44 45 47 48 50 51 51 51 52 53 54 55 57 59 62 64 66 67 68 68 69 69 70 70 70 70 69 68 65 62 61 62 63 64 64 64 64 64 64 65 65 66 66 67 67 67 68 69 69 70 69 69 68 68 68 67 67 67 67 67 66 66 66 65 65 66 67 66 65 63 63 63 62 62 62
56 55 53 52 51 50 49 48 47 46 46 46 48 50 52 53 53 52 52 53 55 56 57 59 61 64 66 68 69 71 72 73 73 74 74 73 73 72 71 68 66 64 65 65 66 66 66 67 67 68 68 69 69 70 70 70 71 72 72 73 73 73 73 72 72 72 71 71 70 70 70 70 70 69 69 69 69 69 69 67 66 66 66 64 65
57 56 54 52 50 49 49 49 48 47 47 49 51 52 54 55 57 57 55 54 54 56 57 58 60 62 65 67 69 71 72 74 75 76 77 77 76 75 74 73 72 70 69 68 68 68 68 69 70 70 71 72 72 73 73 73 74 74 75 76 76 77 76 76 76 76 75 75 75 75 74 74 73 73 72 72 72 73 73 72 70 70 69 68 68
56 55 54 52 51 50 50 49 48 48 49 50 53 55 56 57 58 59 58 56 56 56 57 58 61 63 65 67 69 70 72 74 76 77 78 79 78 77 76 75 75 75 74 73 72 72 72 71 72 72 73 74 74 75 76 76 77 77 77 78 78 79 79 79 79 79 79 79 78 78 78 78 78 77 76 75 75 75 75 75 75 74 73 72 71
55 54 54 54 54 54 53 53 52 52 52 52 53 56 57 58 58 59 60 60 58 57 57 59 61 63 66 68 69 70 72 74 76 78 80 81 81 81 79 78 77 77 77 76 75 74 74 73 73 73 74 74 75 76 77 78 79 79 80 80 81 81 81 81 82 82 82 81 81 81 81 81 81 81 80 79 79 78 78 78 78 78 77 76 75
56 55 55 56 57 57 57 57 56 55 55 54 55 56 58 60 61 62 62 62 61 60 60 61 62 64 66 68 70 72 73 74 76 78 79 81 82 83 83 82 81 80 79 78 76 74 73 73 73 73 73 74 75 76 78 79 80 81 81 82 82 83 83 83 83 83 83 83 83 83 83 83 84 84 84 83 82 82 81 81 80 80 80 79 78
57 57 57 58 59 60 60 59 59 58 57 57 57 57 58 60 62 64 65 65 64 64 64 65 67 69 69 70 71 71 72 73 75 77 78 79 80 81 81 82 82 82 82 82 79 77 75 74 73 73 73 74 75 76 77 79 80 82 82 83 83 84 84 84 85 85 85 85 84 85 84 84 85 85 86 86 85 84 83 83 83 83 83 82 81
58 58 59 60 60 60 60 60 60 60 60 60 59 60 61 62 64 66 67 66 66 66 67 70 73 74 73 73 73 72 72 72 73 75 77 78 79 79 79 80 81 82 83 83 82 81 80 79 78 78 77 76 76 76 77 79 80 82 84 85 85 85 85 85 85 85 85 85 85 85 85 85 85 85 86 86 86 85 85 85 85 84 85 85 84
60 60 60 60 60 60 61 61 61 61 61 61 62 63 63 64 65 66 66 68 70 72 73 75 77 77 77 76 76 75 74 73 73 74 76 77 78 79 80 80 80 81 82 83 83 83 84 84 84 84 84 83 82 81 81 80 81 82 84 86 87 88 88 88 88 88 87 87 86 85 84 83 83 84 84 85 85 85 85 85 85 86 86 86 86
61 61 61 62 62 61 61 61 61 61 62 62 63 64 65 66 67 69 71 73 75 77 78 79 79 79 79 79 78 77 76 76 76 77 78 79 80 80 81 82 83 83 84 84 84 85 85 86 86 87 88 88 88 87 86 85 84 85 85 86 87 88 89 90 90 90 90 89 88 86 85 84 84 83 83 84 84 85 86 86 86 86 87 87 88
62 62 63 63 63 63 63 63 64 65 66 66 67 67 68 69 71 73 74 75 77 78 79 80 81 81 81 80 79 79 78 79 80 82 83 84 84 85 85 86 86 86 86 86 86 86 86 86 86 87 88 89 89 90 90 89 89 90 90 90 89 89 89 89 90 90 90 90 89 86 84 84 85 85 84 84 84 85 86 87 88 88 88 88 89
62 62 63 63 65 66 66 67 68 69 69 69 70 70 71 72 73 75 76 77 79 80 81 82 83 83 83 83 83 83 83 84 85 86 86 87 87 88 88 88 88 88 88 88 88 87 87 86 87 87 88 89 90 91 92 93 94 94 95 95 95 94 92 91 90 90 90 91 91 90 88 86 84 84 84 85 86 86 87 87 88 89 89 90 90
62 63 64 65 67 68 69 70 71 71 72 73 74 75 76 77 78 79 80 80 81 82 83 84 85 86 87 87 88 88 88 88 87 88 88 88 88 89 89 90 90 90 90 90 90 90 90 89 89 89 89 89 90 91 92 93 94 95 96 97 98 98 97 95 93 92 91 91 91 92 92 92 90 87 85 85 85 86 87 88 88 89 90 90 91
62 63 65 67 69 70 71 71 73 74 75 77 78 79 80 81 82 82 83 83 84 85 85 86 87 88 88 89 89 90 90 90 90 90 90 90 90 91 91 91 92 92 92 93 93 93 93 93 92 92 92 93 93 93 92 93 93 94 95 96 98 100 99 98 96 95 93 92 92 91 92 93 94 94 91 89 88 87 87 88 88 90 91 91 92
64 66 68 69 71 71 73 74 76 77 78 79 80 81 82 83 84 85 85 86 86 86 87 88 88 89 89 90 91 92 92 93 93 93 93 93 93 93 94 94 94 95 95 96 97 97 97 97 97 97 97 97 97 97 97 96 96 97 97 97 98 100 101 101 100 98 96 95 95 94 93 93 94 96 96 96 96 94 92 90 89 89 90 92 93
68 69 70 71 72 74 75 76 77 78 79 80 80 81 82 83 84 85 86 87 88 88 89 90 91 91 92 92 93 94 95 95 96 96 97 97 97 97 97 97 98 98 99 100 100 101 101 101 101 102 102 102 102 101 101 101 101 101 101 101 101 101 102 103 103 103 101 100 99 98 97 97 97 97 97 97 99 101 101 99 96 92 91 91 92
70 71 72 73 74 75 76 77 78 79 80 80 81 82 83 84 86 87 88 88 90 91 92 93 93 93 94 94 95 95 96 97 97 98 99 99 100 100 100 100 100 101 101 101 102 102 102 102 102 102 102 103 103 103 104 105 106 106 106 106 106 105 105 105 106 106 106 106 105 104 102 102 101 100 99 98 99 101 103 104 103 101 99 96 93
70 71 72 73 74 75 76 77 78 79 80 81 83 84 85 86 87 88 89 90 91 92 93 94 94 94 95 95 96 96 97 97 98 98 98 98 99 99 99 98 98 98 99 99 99 99 99 99 99 99 100 100 100 101 101 103 104 106 108 109 109 109 109 109 109 109 110 110 110 109 109 108 106 105 103 101 100 100 101 103 104 106 107 106 102
69 71 71 73 74 75 76 77 78 80 81 82 84 85 86 87 88 89 90 91 91 92 93 94 94 95 95 95 96 96 95 95 95 94 94 93 93 92 92 91 91 91 91 92 92 93 93 94 94 94 95 95 96 96 96 97 99 101 103 105 107 109 110 111 111 111 111 112 112 113 113 112 112 110 108 106 103 102 102 103 104 106 109 110 110
70 71 72 73 74 76 77 78 80 81 82 83 84 86 87 87 88 89 90 91 92 92 93 93 93 94 94 93 93 92 91 90 89 88 87 86 85 84 83 83 82 82 82 83 83 84 85 86 86 87 88 88 89 90 90 91 93 95 97 99 101 103 105 108 109 111 111 112 112 113 114 114 114 114 113 111 110 108 107 107 106 107 109 111 111
71 72 74 75 76 78 79 80 81 82 83 84 85 86 87 87 88 89 90 90 90 90 90 90 89 88 87 86 84 83 81 80 79 78 77 76 76 75 74 74 73 73 74 75 75 76 76 77 79 80 81 82 83 83 85 86 88 90 92 94 96 98 99 101 103 106 108 109 110 111 113 114 114 114 115 114 114 114 114 113 113 112 112 112 112
73 74 75 77 78 79 80 81 82 83 84 84 85 85 86 86 86 86 86 85 85 83 82 81 79 78 77 75 74 73 72 71 70 69 68 68 68 67 68 68 68 68 69 70 70 71 72 73 75 76 76 77 77 78 80 82 83 85 87 90 92 94 95 96 98 100 102 104 106 107 109 111 112 113 114 115 115 115 115 116 117 117 117 116 115
74 76 77 78 79 80 81 82 82 83 83 83 83 82 82 82 82 81 80 79 77 75 73 72 71 70 69 69 68 67 66 65 65 64 64 64 64 65 66 66 67 68 68 69 70 71 72 73 75 75 76 75 76 77 79 80 81 82 84 86 88 89 90 92 93 94 96 97 99 102 104 105 107 108 110 112 114 115 115 115 116 117 118 118 118
76 77 78 79 80 80 81 81 81 81 81 80 80 79 78 78 77 76 74 72 69 68 67 67 66 66 66 65 65 64 63 63 63 63 64 65 66 67 68 69 69 70 71 71 72 73 74 75 76 77 76 75 76 77 78 79 79 81 82 83 84 84 85 86 87 88 90 92 94 96 98 100 101 102 104 106 108 111 113 114 115 116 117 117 118
77 78 78 79 80 80 81 81 80 80 79 78 77 76 75 74 72 70 68 66 65 65 64 64 64 63 63 62 62 62 62 62 63 65 66 67 69 70 70 71 72 72 72 73 73 73 74 74 75 75 75 74 74 76 77 77 78 79 80 81 81 81 81 82 82 83 85 87 88 89 91 93 94 96 98 99 102 104 107 110 112 114 115 116 117
78 78 79 79 80 80 79 79 78 77 76 74 73 71 70 68 66 65 64 63 63 63 62 62 62 61 61 61 61 62 63 65 66 67 68 69 70 71 71 72 72 71 72 72 72 72 73 73 73 74 75 74 74 76 77 77 78 78 79 79 80 80 79 79 78 78 80 81 82 83 84 85 87 88 89 92 95 98 101 104 107 109 111 113 115
79 78 78 78 78 77 76 75 73 71 70 68 66 65 64 63 62 61 61 61 61 61 61 61 60 60 61 62 63 64 66 67 68 69 70 70 70 70 70 70 70 70 70 70 71 71 73 74 74 74 75 74 73 74 75 75 74 75 76 77 77 76 75 74 73 73 74 75 77 78 80 82 82 82 83 85 88 91 94 97 99 102 105 108 110
78 77 76 75 73 71 69 67 65 64 62 61 60 60 60 60 59 59 60 60 60 59 59 60 60 61 62 64 65 67 68 69 69 69 69 69 68 68 68 69 69 68 69 70 71 72 73 73 73 72 72 71 70 69 70 70 69 70 70 70 69 67 66 65 64 64 66 67 69 71 74 77 79 80 82 83 85 88 90 91 93 95 98 101 104
76 74 72 69 66 64 61 60 58 57 57 57 57 57 58 58 58 58 58 58 58 58 59 60 61 63 64 66 67 68 69 69 69 69 68 68 67 67 67 68 68 69 69 70 72 72 71 70 69 68 68 67 65 63 63 64 63 63 63 62 60 57 56 55 55 55 56 58 60 62 65 68 71 74 77 80 83 86 89 89 90 91 93 94 95
70 68 64 61 58 56 55 54 54 53 54 54 55 56 56 57 57 57 57 57 57 58 59 61 63 64 65 67 68 69 69 69 69 68 67 67 67 67 67 68 68 69 69 70 70 69 67 66 65 64 62 61 60 58 59 60 59 57 56 54 52 50 50 50 51 52 53 55 57 59 61 64 66 68 70 73 77 81 85 87 89 90 90 89 89
62 59 56 53 52 51 51 51 51 52 52 53 54 54 55 55 56 56 57 57 58 60 61 62 64 65 66 67 68 69 69 69 68 67 66 66 67 67 67 68 68 68 68 68 67 66 64 62 60 58 56 56 56 56 57 57 54 51 49 48 47 48 49 50 51 54 56 58 60 62 64 66 68 69 69 71 72 75 79 82 85 87 87 87 87
56 52 50 48 49 49 50 50 51 51 52 52 53 53 54 55 56 56 57 58 59 61 62 63 64 65 67 68 68 69 68 67 67 66 66 66 67 67 68 68 67 67 66 66 64 62 60 57 53 51 51 52 54 55 55 54 50 47 47 47 47 48 50 52 53 55 57 59 60 62 63 65 68 70 72 73 74 75 77 78 80 81 83 84 86
50 47 46 47 48 49 50 50 51 51 52 52 53 53 54 55 56 57 58 59 60 61 62 63 65 66 67 68 67 67 66 66 66 66 66 66 66 67 67 66 66 65 65 63 62 59 55 50 48 47 49 50 51 53 53 51 49 47 47 48 49 50 52 53 54 54 56 56 57 58 60 62 65 67 70 72 75 78 79 79 78 78 79 79 81
47 46 46 46 47 48 49 50 51 52 52 53 53 54 55 56 57 58 58 59 60 62 63 64 65 66 66 66 66 65 65 65 65 66 66 66 66 66 65 65 65 65 63 61 58 54 49 46 45 45 46 47 49 51 52 52 49 48 48 49 51 52 53 53 54 55 56 56 57 59 61 62 64 64 66 68 72 75 79 80 80 79 78 78 78
46 47 47 48 48 49 50 51 51 52 52 53 54 55 56 57 58 58 59 60 61 62 63 64 65 65 65 64 64 63 64 64 65 65 65 65 65 64 63 63 64 63 62 59 54 48 45 44 44 43 43 46 48 50 52 53 51 50 50 51 52 53 54 55 56 57 57 58 59 62 64 66 66 66 66 66 66 68 72 76 79 81 80 79 77
47 49 49 50 50 51 52 52 52 53 53 54 55 55 56 57 58 59 59 60 61 62 63 63 63 63 63 63 63 63 64 64 64 65 64 64 64 63 62 62 62 61 59 55 48 43 43 43 42 42 43 45 48 50 51 51 50 50 52 53 54 55 55 56 56 57 58 59 60 63 66 67 67 67 68 66 63 62 63 67 71 76 79 79 78
48 49 50 51 52 53 53 54 54 54 55 55 56 56 57 58 59 59 60 61 61 62 62 62 62 62 62 63 63 63 63 63 63 63 63 63 63 62 61 61 61 59 56 49 43 42 43 43 42 43 44 46 47 49 50 49 47 47 49 51 53 54 55 55 56 56 57 58 60 62 63 64 65 66 67 65 61 58 58 59 63 68 73 75 76
48 49 50 52 53 54 54 54 55 55 55 56 56 57 58 59 59 60 60 61 61 62 61 61 62 62 62 63 63 63 62 62 61 61 62 62 61 61 60 60 59 57 50 44 41 42 43 43 43 44 45 45 46 48 49 48 46 45 45 47 49 50 52 53 54 54 56 57 58 59 59 61 63 63 62 61 59 56 55 55 56 60 66 70 72
48 50 51 52 53 53 54 54 55 55 55 56 57 58 59 59 60 60 60 61 61 61 61 61 62 62 62 62 62 62 61 61 60 60 61 60 60 60 59 58 56 52 45 41 40 41 42 42 43 44 45 45 46 47 48 47 46 45 45 45 46 47 49 50 51 53 55 56 57 57 58 60 61 59 55 54 54 54 53 52 52 54 59 64 68
49 50 51 52 53 53 54 55 55 55 55 56 57 58 59 59 60 60 60 60 61 61 61 61 62 62 62 61 61 60 60 60 60 59 59 58 58 58 59 56 51 45 41 40 41 41 42 43 44 46 47 48 48 48 47 47 46 46 46 47 48 48 49 50 51 52 54 54 55 56 57 59 59 56 52 50 50 50 49 49 49 50 53 58 63
50 51 52 53 53 54 54 55 55 55 55 56 57 58 59 59 59 60 60 60 61 61 61 61 61 60 60 60 59 59 58 58 58 58 58 56 55 55 56 53 47 40 39 40 41 41 43 45 47 48 49 49 49 49 47 47 47 47 47 48 49 49 50 50 51 52 52 53 54 55 57 58 58 54 50 48 48 47 46 45 46 46 48 52 57
Wind_Direction
286 284 283 282 282 281 281 281 282 284 285 286 287 287 287 285 282 278 275 271 269 266 263 260 259 257 254 251 251 251 253 254 256 258 260 263 265 266 267 266 265 265 267 268 269 270 270 269 268 266 264 263 263 262 261 259 259 259 259 260 261 262 263 264 265 266 267 267 267 267 266 265 265 265 265 265 265 265 265 264 263 262 262 261 261
286 284 283 282 282 282 282 283 284 286 288 288 288 288 289 288 285 281 278 274 271 268 267 265 264 262 260 256 253 251 251 251 252 254 256 258 260 262 263 264 264 265 266 267 268 269 270 270 270 269 268 266 265 265 264 262 261 261 261 261 262 262 263 264 266 267 267 267 266 266 266 266 266 265 264 265 265 265 263 262 261 262 262 262 262
285 284 283 282 282 282 282 283 284 285 287 289 290 289 288 288 286 282 278 275 272 269 267 265 265 264 264 262 259 256 254 254 254 254 255 256 257 258 260 262 263 264 264 265 267 268 268 269 269 268 268 268 267 266 266 265 265 263 263 262 262 263 263 264 265 266 267 266 266 266 267 266 265 264 264 265 264 262 261 262 262 262 261 261 262
284 284 284 283 283 283 283 283 283 283 284 286 288 289 289 288 287 284 279 274 270 268 266 265 264 263 263 263 261 260 260 259 259 260 259 259 258 258 258 259 260 262 263 264 265 266 267 267 267 267 266 266 266 265 265 265 266 266 265 265 264 264 263 263 263 264 265 266 266 267 266 266 266 265 265 263 262 262 262 262 262 261 261 261 260
286 285 284 284 283 283 283 282 282 282 283 284 285 286 287 287 285 283 279 273 268 266 265 265 265 264 262 261 261 261 261 262 263 263 263 263 263 262 261 260 259 259 260 261 262 263 264 264 265 265 265 265 264 263 263 263 263 264 265 265 265 265 264 263 263 263 264 265 266 266 266 266 265 264 263 263 263 263 262 262 261 261 261 261 261
288 288 287 286 285 285 284 283 282 282 282 282 282 283 283 284 283 281 277 271 266 263 263 263 264 263 263 262 262 262 263 264 265 265 264 264 264 265 265 264 262 261 260 260 260 261 261 261 262 263 263 264 263 262 262 262 262 262 262 263 264 265 265 264 263 263 263 263 264 265 266 266 265 264 263 262 262 262 262 261 261 261 261 261 262
292 292 292 292 290 288 286 284 283 282 281 281 280 280 280 280 279 278 275 270 266 262 261 262 263 263 263 264 264 265 265 265 266 267 266 265 265 266 266 265 265 264 262 261 261 260 260 261 261 261 261 261 261 261 261 262 262 262 262 262 262 263 264 264 264 264 263 263 263 264 265 266 266 265 264 263 262 261 261 260 260 260 260 260 260
294 295 295 295 294 291 288 286 284 282 281 279 278 277 276 276 275 275 273 270 267 263 261 261 262 263 264 265 266 267 267 267 267 268 268 268 268 268 267 267 266 265 264 263 262 261 261 261 261 261 261 261 260 260 260 261 261 262 262 262 262 262 263 263 264 264 264 264 263 263 264 265 266 267 266 265 264 263 261 260 259 258 258 258 258
296 296 296 295 293 290 288 285 283 282 280 278 277 275 275 274 273 273 271 269 267 265 263 262 262 262 263 264 265 266 268 269 269 269 269 269 269 269 269 268 267 266 265 263 262 262 261 261 260 260 260 260 260 260 260 261 261 261 261 261 261 262 262 262 263 263 264 264 264 264 263 263 264 265 266 266 266 265 263 261 259 258 257 257 257
298 297 296 295 292 289 286 284 282 281 279 277 276 274 273 272 272 271 271 269 267 265 264 263 263 263 263 264 264 265 266 267 268 269 270 270 270 270 270 269 268 267 266 265 263 262 262 261 261 260 259 259 258 258 259 260 261 261 262 262 262 262 262 262 262 262 263 264 264 264 264 263 263 263 265 265 265 265 265 263 262 261 260 258 257
297 295 294 293 291 288 286 285 283 281 278 275 273 272 271 271 270 269 269 270 269 267 266 265 264 264 265 265 265 266 266 267 268 269 269 270 270 271 271 270 269 267 266 266 265 264 263 262 262 261 260 259 258 257 257 257 258 259 260 261 261 261 262 262 262 263 263 263 264 264 264 264 263 263 263 264 264 264 264 263 263 263 262 261 260
293 292 290 289 287 286 284 283 282 280 276 272 270 270 269 269 270 271 270 270 270 269 268 267 266 266 266 266 267 267 267 268 269 270 270 271 272 272 272 273 272 270 267 266 266 266 266 265 263 262 261 260 259 258 257 256 256 256 257 258 259 259 260 260 262 263 263 264 265 265 265 265 264 264 263 262 263 264 264 263 263 262 262 262 261
288 288 287 286 285 283 282 281 279 277 274 270 268 269 270 270 270 271 272 271 270 269 268 267 266 266 266 267 268 269 269 269 270 271 272 273 273 274 274 275 275 274 271 268 267 267 266 266 265 264 263 262 261 260 259 258 257 256 256 257 257 258 258 258 259 260 261 263 264 265 265 265 266 265 264 263 262 262 263 263 263 262 261 261 261
285 284 284 284 283 282 281 279 277 273 271 268 267 267 270 271 271 270 271 271 270 268 266 264 263 263 264 265 266 267 268 270 270 271 272 274 275 276 276 277 277 276 275 273 272 271 270 269 267 265 264 263 262 262 261 260 259 258 257 257 257 257 257 257 258 259 259 260 261 262 264 265 266 266 266 265 264 263 263 263 262 262 261 261 260
283 282 282 282 281 281 280 278 276 273 271 270 269 267 267 270 271 271 271 271 269 267 264 262 262 262 262 263 264 266 267 268 268 269 270 271 273 274 276 277 277 277 277 276 275 275 274 272 270 268 265 264 263 263 262 262 261 260 259 259 258 258 258 258 258 258 259 259 260 260 262 263 264 265 266 266 265 264 263 263 263 262 261 261 260
281 280 280 280 279 279 278 278 277 275 273 272 272 270 269 269 270 272 273 272 271 269 266 264 263 264 264 265 266 267 268 268 268 268 268 268 269 270 271 273 274 275 276 276 276 275 274 273 271 270 268 266 264 263 262 262 262 262 262 261 260 259 259 259 259 259 259 260 260 260 260 262 263 264 265 265 265 265 264 264 263 263 262 261 260
278 278 277 277 277 278 278 278 278 277 276 275 274 273 273 272 272 273 274 274 272 271 270 268 269 269 270 270 269 270 269 269 269 269 268 268 267 267 268 268 269 271 272 273 273 273 273 272 271 270 269 268 267 266 264 263 263 263 263 262 262 261 260 260 260 260 260 260 260 260 260 261 262 263 264 265 265 265 265 264 264 264 263 262 261
276 275 275 275 276 276 277 277 277 276 276 276 275 274 274 273 273 274 275 274 273 272 271 271 273 274 275 275 274 274 273 271 270 270 270 270 270 269 269 269 269 269 270 270 270 271 271 272 271 271 270 270 268 267 266 265 265 264 264 263 263 262 262 261 261 261 261 261 261 261 261 261 261 262 264 264 265 265 265 265 264 264 264 263 262
274 274 275 275 276 276 276 276 276 276 276 275 275 274 274 273 272 272 272 273 273 274 274 274 276 277 278 278 278 277 277 275 274 272 272 272 272 272 272 271 271 270 270 270 270 270 270 270 271 271 271 272 271 270 268 267 266 265 265 264 264 263 263 263 262 262 262 262 262 262 262 262 262 262 262 264 265 265 266 265 265 265 265 264 263
273 273 274 275 276 276 276 275 275 275 275 274 273 273 273 272 272 272 273 273 275 276 277 277 278 279 279 279 278 278 277 276 275 275 274 274 274 273 273 273 273 272 271 270 270 270 270 270 270 270 270 271 272 272 271 270 269 268 267 265 264 263 263 262 262 262 262 262 263 263 263 263 263 263 263 263 264 265 266 266 266 266 266 265 265
272 273 273 274 274 274 274 274 274 274 274 274 273 273 273 273 273 274 275 276 276 277 277 278 279 279 280 279 279 278 277 277 276 276 276 276 276 276 276 275 275 275 274 273 272 272 271 270 269 269 269 269 269 270 270 270 271 271 271 269 267 265 263 262 261 261 261 260 260 260 261 262 263 263 263 263 264 264 265 265 265 266 266 266 266
271 272 272 272 273 273 273 274 274 274 275 274 274 274 275 275 276 276 277 277 277 277 278 278 279 279 280 280 279 279 279 278 278 277 277 277 277 277 277 277 277 276 276 276 275 274 273 272 271 270 269 268 268 267 268 268 269 269 270 270 270 269 267 265 263 262 260 260 259 258 258 258 259 260 261 262 263 264 264 264 264 265 265 265 265
270 271 271 272 272 273 273 274 274 275 275 276 276 276 277 278 278 278 279 279 279 279 279 279 279 279 280 280 280 280 280 279 279 278 278 277 277 277 277 276 276 276 275 275 275 274 274 273 273 272 271 270 269 268 267 267 267 267 266 267 268 268 268 268 266 265 263 261 260 259 258 257 257 257 257 259 260 261 262 263 263 264 264 264 264
270 271 272 272 273 273 274 274 275 276 276 277 278 278 279 280 280 280 280 280 280 280 279 279 279 279 279 280 280 280 280 280 280 279 279 278 278 277 277 276 276 276 275 275 274 274 273 272 272 272 271 271 270 270 269 268 267 266 265 265 265 265 266 266 266 266 265 264 263 262 260 259 257 256 255 256 257 258 259 260 261 262 262 263 263
271 273 274 273 274 274 275 275 276 277 278 279 279 280 280 281 281 281 281 281 281 281 281 281 280 280 280 280 281 281 281 281 281 281 280 280 279 279 278 278 277 277 277 277 276 276 275 274 273 273 272 271 270 270 269 268 268 267 266 264 264 263 264 264 264 264 264 265 265 264 263 262 260 259 257 256 256 256 257 258 258 258 259 260 261
275 276 276 276 276 277 278 278 279 280 281 281 282 282 283 283 283 283 283 283 283 283 283 283 283 283 283 283 282 282 282 282 282 282 282 282 281 281 280 280 279 279 279 279 278 278 278 277 276 276 275 273 272 271 270 269 268 267 266 265 264 263 262 262 262 262 263 263 264 264 264 264 263 262 260 258 257 256 256 257 258 258 258 258 257
278 278 279 279 280 280 281 281 282 282 283 283 284 284 284 284 284 284 284 284 284 284 284 284 284 284 284 283 283 283 283 283 283 283 283 283 283 283 282 282 281 281 280 280 279 279 278 278 277 277 276 275 274 273 272 271 270 269 268 267 265 264 262 261 261 261 261 262 262 262 263 263 264 263 262 261 259 258 256 256 257 257 258 258 257
280 280 281 281 282 282 283 283 284 284 284 284 284 284 284 284 284 284 284 284 284 284 284 284 284 284 284 284 284 284 285 285 285 285 284 284 284 284 283 283 282 282 281 281 280 279 279 278 278 277 276 275 275 274 273 272 271 270 269 268 267 266 264 263 261 260 260 260 260 261 261 261 262 262 262 261 261 260 259 258 257 257 258 258 259
281 282 282 283 283 284 284 284 285 285 285 284 284 284 284 284 284 284 284 284 284 284 285 285 285 286 286 286 286 286 286 286 286 286 285 285 285 284 284 284 283 283 282 282 281 280 280 279 278 277 277 276 275 274 273 272 271 270 269 268 267 266 265 264 263 262 261 260 260 259 259 260 260 261 261 261 260 260 261 260 259 259 258 258 259
283 283 284 284 285 285 285 285 285 284 284 284 284 284 284 284 285 285 285 285 285 286 286 287 287 287 287 287 287 287 287 286 286 286 286 286 286 286 286 285 285 285 284 283 283 282 281 280 279 278 278 277 277 276 275 274 273 272 270 269 267 266 265 265 264 263 262 261 260 260 259 259 259 259 259 259 259 259 259 260 260 260 260 259 260
284 284 285 285 285 285 285 285 285 285 285 285 286 286 286 286 286 286 286 287 287 287 288 288 288 288 288 288 288 287 287 287 287 287 287 287 287 287 287 287 287 286 286 285 285 284 283 282 281 280 279 279 278 278 277 277 276 275 274 272 270 268 267 266 265 264 263 263 262 261 261 260 259 259 258 258 258 257 258 258 258 259 259 259 260
285 285 286 286 287 287 287 287 287 287 287 287 287 287 287 287 287 287 287 287 287 287 287 287 287 287 287 287 287 287 287 287 288 288 288 288 288 288 288 287 287 286 286 285 285 285 284 283 282 282 281 280 280 279 278 278 277 277 276 275 274 272 271 269 268 266 265 264 263 262 261 261 260 260 259 258 258 257 257 257 257 257 258 258 259
287 287 288 288 288 288 288 289 289 288 288 288 288 288 287 287 287 287 287 287 286 286 285 285 285 285 285 285 286 286 287 287 288 288 288 288 288 288 288 287 287 286 286 286 285 285 285 284 284 283 283 282 282 281 280 279 278 277 277 276 275 275 274 273 271 270 268 267 265 264 262 262 261 260 260 259 259 258 258 257 256 256 256 257 258
289 289 289 289 289 289 289 289 288 288 288 288 288 288 287 287 287 286 286 285 285 284 284 284 284 285 286 286 287 287 288 288 289 289 290 290 290 290 290 289 289 288 288 287 287 286 286 286 285 285 285 284 284 283 281 280 279 278 277 277 276 275 275 274 273 272 271 270 268 267 265 263 262 261 261 260 259 259 258 257 256 256 255 256 256
289 289 289 289 289 289 289 289 289 289 289 289 288 288 287 287 286 286 285 285 285 285 285 286 287 287 288 288 289 289 290 290 291 291 291 291 291 291 291 290 290 290 289 289 288 288 287 287 287 286 286 286 285 284 283 282 281 280 279 279 278 276 275 274 273 273 272 272 271 270 268 267 265 264 262 261 260 259 258 257 256 256 255 255 255
290 290 290 290 289 289 290 290 290 290 290 289 289 288 287 287 286 286 286 286 286 287 288 289 289 289 290 290 290 291 291 292 292 292 292 292 292 292 291 291 291 290 290 290 290 289 289 288 288 288 288 288 287 286 285 284 283 282 281 280 279 278 278 277 276 275 274 274 273 272 270 269 267 265 264 263 262 261 259 258 257 256 255 254 254
291 291 291 290 291 291 291 291 290 290 289 289 288 288 287 287 286 287 287 287 288 289 290 290 290 290 290 291 291 292 292 292 293 293 293 292 292 292 291 291 291 291 291 291 291 290 290 290 290 290 290 289 288 287 286 285 285 284 282 281 281 281 280 280 279 277 276 274 273 272 271 269 268 266 265 263 263 262 260 259 257 256 255 254 254
292 291 292 292 292 292 291 291 290 289 288 287 287 286 286 286 286 287 287 288 289 289 290 290 290 290 291 291 292 292 293 293 293 293 293 292 292 292 292 292 291 291 291 291 291 291 291 291 292 291 290 289 289 288 287 286 285 284 283 282 282 282 281 281 279 278 277 276 274 273 272 270 269 267 265 264 263 262 260 259 258 257 255 254 253
292 292 293 293 292 291 290 289 288 287 286 286 285 285 285 285 286 286 287 288 288 288 288 289 289 290 290 291 292 293 293 294 294 293 293 292 292 292 292 292 292 292 292 292 292 292 293 293 293 292 291 291 290 289 288 287 286 284 283 283 282 282 282 281 281 280 279 279 278 276 275 274 272 270 268 266 264 263 262 260 258 257 255 254 253
293 293 293 292 291 290 288 287 286 285 285 284 284 284 284 285 285 285 286 286 287 287 287 288 289 290 290 291 292 293 294 294 294 293 293 293 293 293 293 293 293 294 294 294 294 294 295 295 294 293 292 292 291 291 290 289 287 285 283 282 282 282 283 283 283 283 282 281 280 279 278 276 275 273 272 270 268 266 264 262 260 258 257 255 253
294 293 292 291 289 287 285 285 284 283 283 282 283 283 283 284 284 285 285 286 286 287 287 288 289 290 291 292 293 294 294 294 294 293 293 293 294 294 294 294 294 295 295 295 295 296 296 296 294 293 293 293 294 294 293 291 288 284 282 282 283 285 285 286 287 287 287 285 283 281 278 276 274 273 271 271 270 268 267 265 263 261 259 257 255
293 292 290 287 285 284 284 283 283 283 283 283 284 284 284 284 284 285 285 286 286 287 288 289 290 291 292 293 294 294 294 294 294 294 294 294 295 295 295 296 296 296 296 296 297 298 297 295 294 293 294 296 298 298 295 291 287 284 283 284 285 287 288 290 291 292 291 289 287 285 282 280 277 274 271 269 268 267 267 266 266 264 262 259 256
292 289 286 284 283 283 284 284 284 285 285 285 285 285 285 285 285 285 286 286 287 288 289 290 291 292 293 294 294 295 294 294 294 295 295 295 295 296 296 297 297 297 297 297 298 298 296 293 293 294 297 300 302 301 299 294 288 285 284 286 287 289 290 292 294 295 295 293 291 289 287 285 282 278 274 270 267 265 264 264 264 264 264 262 259
291 288 285 284 284 284 284 284 285 285 285 285 286 285 286 285 286 286 286 287 288 289 290 291 292 293 294 294 295 295 295 295 295 295 295 295 296 296 297 298 298 298 297 298 299 297 293 292 293 296 300 304 306 306 303 298 290 286 286 286 287 288 290 292 294 296 297 296 296 294 293 291 288 284 279 274 270 267 264 262 261 261 261 261 260
290 288 287 286 285 285 284 284 285 285 285 286 286 286 286 286 286 287 288 288 289 290 291 293 293 294 295 295 295 295 295 295 295 295 296 296 296 297 298 298 298 297 298 299 297 294 292 293 296 299 303 307 309 309 307 301 293 288 286 286 286 288 290 292 294 296 298 299 300 299 299 298 295 291 285 280 275 270 266 263 261 259 258 258 259
289 287 287 286 286 286 285 286 286 287 287 287 287 287 287 287 288 289 289 290 291 292 293 294 294 295 295 295 296 296 296 296 296 296 296 296 297 298 298 298 297 297 298 298 294 292 293 295 297 301 305 308 309 309 307 303 297 291 287 287 287 289 290 293 295 297 299 300 300 300 301 301 299 295 290 285 280 275 270 265 262 259 257 256 257
286 285 285 286 286 286 286 287 287 288 288 289 289 289 288 289 289 290 291 292 293 294 294 295 295 296 296 296 296 296 295 295 295 295 296 296 297 298 298 297 296 297 298 296 292 293 295 296 298 302 305 307 308 307 305 304 302 297 293 290 289 289 289 291 293 295 297 298 298 299 301 302 300 297 292 287 282 277 272 267 263 259 257 255 254
284 283 284 284 285 286 287 287 288 289 289 290 290 290 290 290 291 292 293 294 295 295 296 296 296 296 296 296 296 295 295 295 294 295 295 296 297 298 297 297 297 298 296 292 292 294 295 296 299 302 303 305 306 305 304 304 303 302 299 296 293 291 290 290 291 293 295 296 297 299 301 302 302 298 293 289 285 280 274 269 263 259 256 254 252
285 284 285 285 286 286 287 288 289 290 290 290 290 290 291 291 293 294 294 295 295 296 296 297 297 297 296 296 295 294 294 294 294 294 295 296 297 297 297 297 298 297 294 292 293 294 295 296 300 303 304 305 306 306 305 304 303 303 303 302 300 298 295 293 292 293 295 297 300 302 304 305 305 300 294 289 285 281 277 272 266 260 256 252 250
286 286 286 286 287 287 288 289 290 290 290 291 290 291 291 293 294 295 295 296 296 296 297 296 296 296 295 294 294 293 293 293 293 294 294 296 297 298 297 298 296 293 292 294 296 297 298 301 303 305 306 307 308 308 307 307 306 305 305 305 304 303 302 300 297 296 298 302 305 306 308 310 309 304 297 291 285 281 278 274 270 263 257 252 250
287 287 287 288 288 289 290 290 291 291 291 291 291 291 292 294 294 295 296 296 297 297 296 296 295 294 293 293 292 292 292 293 293 294 295 296 296 297 298 298 295 291 293 296 298 300 302 304 305 305 306 308 308 309 309 309 308 308 307 307 306 305 305 303 300 299 301 305 307 309 311 313 311 306 300 293 287 283 279 276 272 266 259 253 250
Height
5805 5804 5803 5803 5802 5802 5801 5801 5800 5800 5800 5799 5799 5798 5798 5797 5797 5796 5795 5794 5794 5794 5793 5792 5791 5790 5789 5787 5787 5786 5786 5786 5787 5787 5788 5788 5788 5788 5788 5788 5788 5788 5787 5787 5786 5786 5786 5785 5784 5784 5783 5782 5782 5782 5782 5781 5781 5780 5780 5780 5780 5780 5779 5779 5778 5779 5779 5780 5781 5781 5780 5781 5782 5783 5784 5784 5785 5785 5786 5786 5785 5784 5785 5785 5785
5801 5801 5800 5799 5799 5798 5797 5797 5796 5796 5796 5796 5795 5794 5794 5793 5793 5792 5792 5791 5791 5790 5789 5788 5788 5787 5786 5785 5784 5783 5782 5781 5781 5781 5782 5782 5782 5782 5782 5782 5782 5782 5782 5781 5781 5781 5780 5780 5779 5779 5779 5778 5777 5777 5776 5776 5775 5775 5775 5775 5774 5774 5774 5773 5773 5773 5773 5774 5774 5774 5774 5775 5776 5777 5778 5779 5780 5780 5779 5779 5779 5779 5780 5780 5780
5797 5797 5796 5796 5795 5794 5793 5793 5792 5792 5791 5791 5791 5790 5790 5789 5789 5788 5788 5787 5787 5786 5785 5784 5784 5783 5782 5782 5781 5780 5778 5778 5777 5776 5776 5776 5776 5776 5776 5775 5775 5775 5775 5775 5775 5774 5774 5774 5774 5773 5773 5773 5772 5772 5771 5771 5770 5770 5769 5769 5768 5768 5768 5768 5768 5767 5767 5767 5767 5767 5768 5769 5769 5771 5773 5773 5773 5772 5772 5773 5773 5774 5774 5774 5775
5793 5792 5792 5791 5791 5790 5790 5789 5788 5788 5787 5787 5786 5785 5785 5784 5784 5784 5783 5783 5783 5782 5781 5780 5780 5779 5778 5777 5776 5775 5775 5774 5773 5772 5771 5771 5770 5770 5769 5769 5769 5769 5768 5768 5768 5768 5768 5767 5767 5767 5767 5766 5766 5766 5766 5766 5765 5764 5764 5763 5763 5762 5763 5763 5762 5761 5761 5761 5761 5761 5762 5762 5763 5765 5766 5766 5765 5765 5767 5767 5767 5767 5768 5768 5769
5788 5788 5787 5786 5786 5786 5785 5784 5783 5783 5782 5782 5781 5780 5780 5779 5778 5778 5778 5778 5777 5777 5776 5776 5775 5774 5773 5772 5771 5771 5770 5769 5768 5768 5767 5766 5765 5764 5764 5763 5762 5762 5761 5761 5761 5761 5761 5760 5760 5760 5760 5760 5760 5760 5760 5759 5759 5758 5758 5757 5757 5756 5757 5757 5757 5756 5756 5756 5755 5755 5755 5755 5757 5758 5758 5758 5758 5759 5760 5760 5760 5761 5761 5762 5763
5782 5782 5781 5781 5781 5780 5779 5779 5778 5778 5777 5777 5776 5775 5775 5774 5773 5772 5772 5771 5771 5771 5770 5769 5769 5768 5767 5767 5766 5765 5765 5764 5763 5762 5761 5760 5760 5759 5759 5758 5757 5756 5755 5754 5753 5753 5753 5753 5753 5752 5752 5752 5752 5752 5752 5752 5752 5751 5751 5751 5750 5750 5750 5750 5751 5751 5751 5751 5750 5749 5749 5749 5750 5750 5751 5751 5752 5752 5752 5753 5754 5754 5755 5756 5757
5776 5775 5775 5774 5774 5773 5773 5772 5772 5771 5771 5771 5770 5770 5769 5768 5767 5766 5766 5765 5765 5764 5763 5762 5761 5761 5760 5759 5758 5758 5758 5757 5757 5756 5755 5754 5753 5753 5752 5752 5751 5750 5749 5748 5747 5746 5746 5745 5745 5745 5745 5745 5745 5745 5744 5744 5744 5744 5744 5744 5743 5743 5742 5743 5744 5744 5744 5745 5745 5744 5744 5743 5743 5743 5744 5744 5745 5745 5746 5746 5747 5747 5747 5748 5749
5770 5769 5768 5768 5766 5766 5765 5765 5764 5764 5764 5764 5763 5763 5762 5762 5761 5760 5759 5759 5758 5757 5756 5755 5754 5753 5752 5751 5750 5749 5749 5749 5749 5749 5748 5747 5746 5745 5745 5745 5744 5744 5743 5742 5741 5740 5739 5738 5737 5737 5736 5736 5736 5736 5736 5736 5736 5736 5736 5736 5736 5735 5735 5735 5735 5736 5736 5737 5737 5737 5737 5736 5736 5735 5736 5737 5738 5739 5740 5740 5740 5740 5740 5740 5741
5763 5761 5761 5760 5760 5759 5758 5757 5757 5757 5756 5756 5756 5756 5755 5755 5754 5753 5753 5752 5751 5750 5749 5748 5747 5746 5745 5743 5742 5741 5740 5740 5740 5740 5740 5740 5739 5738 5737 5736 5736 5736 5735 5734 5734 5733 5732 5731 5730 5729 5729 5728 5728 5728 5728 5727 5727 5727 5727 5728 5728 5727 5727 5727 5727 5727 5728 5728 5729 5729 5729 5729 5728 5728 5728 5728 5729 5731 5733 5733 5733 5732 5733 5733 5733
5755 5754 5752 5751 5751 5751 5750 5750 5749 5749 5749 5748 5748 5748 5748 5748 5747 5746 5745 5744 5744 5743 5742 5741 5739 5738 5737 5736 5735 5734 5733 5732 5731 5730 5730 5731 5731 5730 5730 5728 5728 5727 5726 5726 5725 5725 5724 5723 5722 5721 5721 5720 5720 5720 5719 5719 5718 5718 5718 5718 5718 5718 5718 5718 5719 5719 5719 5719 5719 5720 5721 5721 5721 5720 5719 5719 5719 5721 5723 5726 5726 5725 5726 5726 5726
5746 5746 5745 5744 5743 5743 5742 5742 5742 5742 5741 5741 5740 5739 5739 5739 5740 5739 5738 5737 5736 5735 5734 5733 5732 5730 5729 5728 5727 5725 5724 5723 5722 5721 5721 5721 5721 5721 5721 5721 5720 5718 5718 5717 5716 5716 5715 5715 5714 5713 5712 5711 5711 5711 5711 5710 5710 5709 5709 5709 5709 5709 5709 5709 5709 5709 5709 5710 5710 5710 5711 5712 5712 5713 5712 5710 5710 5711 5712 5715 5717 5717 5718 5720 5719
5740 5738 5738 5737 5736 5736 5735 5735 5735 5735 5734 5733 5732 5731 5730 5729 5730 5730 5731 5730 5729 5728 5727 5725 5724 5723 5721 5720 5718 5717 5716 5715 5713 5712 5711 5711 5711 5711 5711 5711 5711 5710 5709 5708 5707 5707 5706 5705 5705 5704 5703 5702 5701 5701 5701 5701 5701 5700 5700 5699 5699 5699 5700 5700 5700 5699 5699 5700 5700 5700 5701 5702 5702 5703 5703 5702 5702 5702 5702 5704 5707 5707 5709 5712 5712
5734 5732 5730 5729 5728 5728 5727 5727 5727 5727 5726 5725 5724 5723 5722 5721 5720 5720 5721 5721 5720 5720 5718 5717 5716 5715 5713 5712 5710 5709 5708 5706 5705 5703 5702 5701 5700 5700 5700 5700 5700 5700 5700 5699 5699 5698 5697 5696 5695 5695 5694 5693 5692 5691 5691 5691 5691 5691 5690 5690 5690 5689 5690 5690 5690 5690 5690 5690 5690 5690 5690 5691 5692 5692 5692 5693 5694 5693 5692 5695 5697 5696 5698 5702 5702
5726 5725 5723 5722 5721 5720 5719 5718 5718 5718 5717 5717 5716 5715 5714 5714 5713 5712 5711 5712 5711 5711 5710 5709 5708 5707 5705 5704 5703 5701 5700 5698 5697 5695 5694 5692 5691 5690 5689 5689 5689 5689 5689 5688 5688 5688 5687 5687 5686 5685 5684 5683 5682 5682 5681 5680 5680 5680 5680 5680 5680 5680 5680 5680 5680 5679 5680 5680 5680 5681 5680 5681 5681 5681 5681 5682 5683 5683 5684 5685 5685 5686 5688 5691 5692
5718 5717 5716 5715 5713 5712 5711 5710 5709 5708 5708 5708 5707 5707 5706 5706 5705 5704 5703 5702 5702 5701 5701 5700 5699 5699 5697 5696 5695 5694 5693 5691 5689 5688 5686 5684 5683 5681 5680 5679 5678 5678 5678 5677 5677 5676 5676 5676 5676 5675 5675 5674 5673 5672 5671 5670 5670 5669 5669 5669 5669 5669 5670 5670 5669 5669 5669 5670 5670 5671 5671 5671 5670 5670 5670 5672 5672 5673 5674 5674 5674 5675 5677 5680 5682
5711 5710 5709 5708 5706 5704 5703 5702 5701 5700 5700 5699 5699 5699 5698 5697 5696 5695 5694 5693 5692 5692 5692 5692 5691 5690 5689 5688 5686 5685 5684 5682 5681 5679 5678 5676 5675 5673 5672 5670 5669 5668 5667 5667 5666 5666 5665 5665 5664 5664 5663 5663 5663 5662 5662 5661 5660 5659 5659 5658 5658 5658 5659 5659 5658 5659 5659 5659 5660 5660 5661 5661 5660 5659 5660 5661 5661 5662 5663 5664 5663 5664 5666 5668 5671
5704 5703 5702 5700 5699 5697 5695 5694 5693 5693 5692 5691 5691 5690 5689 5688 5687 5686 5684 5683 5682 5682 5682 5681 5681 5680 5679 5678 5676 5675 5674 5672 5670 5669 5667 5666 5665 5665 5663 5662 5661 5659 5658 5657 5656 5655 5655 5655 5654 5653 5653 5652 5651 5651 5651 5650 5650 5649 5648 5648 5647 5647 5648 5647 5647 5648 5648 5648 5650 5650 5650 5651 5650 5649 5649 5650 5650 5651 5652 5653 5653 5654 5654 5656 5660
5697 5696 5694 5693 5691 5690 5688 5687 5686 5685 5684 5683 5682 5682 5681 5680 5678 5677 5675 5673 5673 5672 5671 5670 5669 5668 5667 5666 5665 5664 5663 5662 5660 5658 5657 5655 5654 5654 5654 5653 5652 5650 5649 5647 5646 5645 5643 5643 5642 5642 5641 5641 5641 5640 5639 5639 5638 5638 5637 5637 5636 5637 5637 5636 5635 5636 5637 5637 5638 5639 5640 5640 5640 5639 5639 5639 5639 5640 5641 5642 5643 5644 5643 5645 5648
5689 5688 5686 5685 5683 5682 5680 5679 5678 5676 5675 5674 5673 5673 5672 5671 5669 5668 5666 5664 5663 5661 5660 5659 5658 5657 5656 5655 5654 5653 5652 5650 5649 5648 5647 5645 5644 5643 5642 5642 5641 5640 5639 5638 5636 5635 5634 5632 5631 5630 5629 5628 5628 5627 5627 5627 5627 5626 5626 5625 5625 5625 5625 5625 5624 5624 5625 5625 5626 5627 5628 5629 5629 5629 5629 5629 5629 5629 5629 5630 5631 5632 5632 5634 5636
5682 5680 5678 5677 5675 5673 5672 5670 5669 5668 5666 5665 5664 5663 5662 5661 5660 5658 5657 5655 5653 5651 5650 5648 5646 5645 5644 5643 5642 5641 5640 5639 5638 5636 5635 5634 5633 5632 5631 5630 5629 5628 5628 5627 5626 5625 5624 5622 5621 5619 5617 5616 5614 5614 5613 5613 5613 5613 5613 5613 5613 5612 5613 5613 5613 5613 5613 5613 5615 5616 5616 5617 5617 5618 5619 5619 5619 5618 5619 5619 5619 5621 5621 5622 5623
5674 5672 5670 5669 5667 5665 5663 5661 5660 5658 5657 5656 5655 5654 5653 5652 5650 5648 5647 5645 5644 5642 5640 5637 5635 5634 5632 5631 5630 5630 5629 5627 5626 5625 5623 5622 5621 5620 5618 5617 5616 5615 5615 5614 5614 5613 5613 5612 5610 5608 5607 5605 5603 5602 5600 5599 5599 5598 5598 5598 5598 5599 5599 5600 5600 5601 5601 5601 5602 5604 5605 5605 5605 5607 5608 5608 5608 5608 5608 5609 5609 5609 5611 5611 5610
5666 5664 5662 5660 5658 5656 5654 5652 5650 5649 5648 5647 5646 5644 5643 5642 5640 5638 5637 5635 5633 5631 5629 5627 5625 5623 5621 5619 5618 5617 5616 5615 5614 5613 5612 5610 5608 5607 5606 5604 5603 5602 5601 5601 5600 5600 5599 5599 5598 5596 5595 5594 5592 5591 5589 5588 5586 5585 5584 5583 5582 5582 5583 5585 5586 5587 5588 5588 5589 5591 5592 5593 5592 5594 5597 5597 5597 5597 5597 5598 5599 5598 5600 5600 5598
5657 5656 5654 5651 5649 5647 5645 5644 5642 5640 5639 5637 5636 5635 5633 5632 5630 5628 5626 5624 5622 5620 5618 5616 5614 5612 5610 5608 5606 5605 5603 5602 5601 5600 5599 5597 5596 5595 5593 5592 5590 5589 5588 5587 5586 5586 5585 5584 5584 5583 5582 5581 5580 5579 5578 5576 5575 5573 5572 5571 5569 5568 5568 5569 5570 5571 5572 5573 5574 5577 5579 5579 5579 5581 5584 5585 5585 5585 5585 5586 5588 5587 5588 5589 5588
5650 5648 5646 5643 5640 5639 5637 5635 5633 5631 5630 5628 5626 5625 5623 5621 5619 5617 5615 5612 5610 5609 5607 5604 5602 5600 5598 5596 5594 5592 5590 5589 5587 5586 5585 5584 5583 5581 5580 5578 5577 5576 5574 5573 5572 5571 5570 5570 5569 5568 5568 5567 5566 5566 5565 5564 5562 5560 5559 5558 5557 5556 5555 5556 5556 5557 5558 5558 5559 5562 5565 5565 5565 5567 5571 5572 5571 5572 5573 5574 5576 5576 5576 5577 5577
5641 5640 5637 5634 5632 5630 5628 5626 5624 5622 5621 5619 5617 5615 5612 5610 5607 5605 5603 5600 5598 5596 5594 5592 5590 5588 5586 5584 5581 5579 5577 5575 5573 5572 5570 5569 5568 5567 5565 5564 5563 5561 5560 5558 5556 5555 5554 5554 5553 5553 5552 5551 5551 5550 5550 5549 5548 5546 5544 5544 5543 5543 5542 5542 5543 5544 5544 5544 5545 5547 5550 5550 5550 5552 5557 5559 5558 5559 5559 5560 5563 5564 5564 5564 5565
5633 5631 5628 5625 5623 5621 5619 5617 5615 5613 5611 5609 5607 5604 5601 5599 5596 5593 5591 5588 5585 5583 5580 5578 5576 5574 5572 5570 5568 5566 5564 5562 5559 5557 5555 5553 5552 5551 5550 5548 5547 5546 5544 5542 5541 5539 5537 5537 5536 5535 5534 5534 5534 5534 5533 5533 5531 5529 5528 5528 5528 5529 5529 5529 5530 5530 5531 5531 5532 5534 5536 5536 5535 5537 5541 5543 5543 5544 5545 5546 5548 5550 5550 5551 5552
5623 5621 5618 5615 5613 5611 5609 5607 5605 5603 5601 5599 5596 5593 5591 5588 5585 5582 5579 5576 5573 5571 5567 5565 5563 5561 5559 5557 5554 5552 5550 5548 5546 5543 5540 5538 5536 5535 5533 5532 5530 5529 5527 5526 5524 5523 5521 5520 5519 5518 5517 5516 5516 5516 5516 5514 5513 5511 5510 5510 5511 5512 5513 5514 5515 5516 5517 5517 5518 5520 5522 5522 5522 5523 5525 5527 5527 5528 5529 5531 5533 5535 5535 5536 5538
5613 5611 5608 5606 5604 5602 5599 5597 5595 5593 5591 5588 5586 5583 5580 5577 5573 5570 5568 5565 5562 5559 5556 5552 5550 5548 5546 5544 5541 5539 5537 5534 5531 5528 5526 5523 5521 5519 5518 5516 5514 5512 5510 5509 5507 5506 5505 5504 5502 5501 5499 5498 5498 5498 5498 5495 5493 5491 5490 5490 5492 5493 5495 5497 5499 5501 5502 5503 5504 5505 5507 5508 5508 5508 5509 5511 5511 5511 5512 5515 5518 5519 5519 5520 5523
5603 5601 5598 5596 5594 5592 5590 5587 5585 5583 5581 5578 5575 5572 5569 5565 5562 5559 5556 5553 5550 5547 5543 5540 5538 5535 5533 5530 5528 5526 5523 5520 5516 5514 5511 5509 5507 5505 5503 5502 5500 5498 5496 5494 5493 5491 5490 5488 5486 5484 5483 5481 5480 5481 5480 5476 5473 5472 5472 5471 5472 5474 5475 5477 5479 5482 5485 5486 5488 5489 5490 5492 5493 5493 5494 5495 5496 5497 5496 5498 5502 5503 5502 5503 5507
5593 5591 5589 5587 5585 5582 5580 5577 5575 5573 5569 5566 5564 5560 5557 5553 5550 5546 5543 5541 5538 5534 5531 5528 5525 5522 5519 5517 5515 5512 5509 5506 5503 5500 5498 5496 5495 5493 5491 5489 5487 5485 5483 5481 5480 5478 5476 5474 5472 5470 5468 5467 5465 5465 5463 5458 5455 5453 5452 5452 5454 5455 5457 5458 5460 5463 5466 5468 5469 5470 5472 5475 5476 5477 5479 5480 5481 5482 5482 5483 5487 5488 5487 5487 5490
5584 5581 5579 5577 5575 5572 5569 5567 5564 5561 5557 5554 5551 5548 5544 5541 5537 5534 5531 5529 5526 5522 5518 5515 5512 5509 5506 5504 5502 5499 5496 5494 5491 5489 5487 5486 5484 5482 5480 5478 5476 5474 5472 5470 5468 5466 5464 5461 5458 5457 5456 5454 5454 5452 5447 5443 5441 5438 5434 5433 5434 5437 5440 5441 5442 5444 5447 5450 5452 5452 5454 5455 5458 5460 5462 5464 5465 5466 5467 5468 5470 5472 5472 5471 5473
5574 5572 5569 5566 5564 5561 5558 5555 5552 5548 5545 5542 5539 5536 5533 5529 5525 5522 5520 5517 5514 5511 5508 5504 5501 5498 5496 5494 5492 5489 5487 5484 5482 5480 5478 5477 5475 5473 5470 5469 5467 5465 5462 5460 5458 5455 5453 5450 5446 5444 5444 5443 5442 5439 5434 5431 5429 5425 5421 5417 5417 5420 5422 5424 5426 5427 5429 5431 5433 5434 5435 5436 5439 5441 5443 5444 5446 5448 5450 5450 5451 5453 5454 5455 5457
5564 5562 5559 5555 5552 5549 5546 5543 5540 5536 5533 5530 5527 5524 5521 5518 5514 5511 5509 5506 5504 5501 5498 5495 5492 5490 5488 5485 5483 5481 5479 5476 5474 5472 5470 5468 5466 5463 5461 5459 5457 5455 5452 5451 5448 5445 5442 5439 5435 5433 5432 5432 5430 5426 5421 5419 5416 5413 5409 5405 5404 5405 5406 5407 5409 5410 5410 5411 5413 5414 5416 5418 5421 5423 5424 5424 5426 5428 5430 5430 5432 5434 5436 5439 5441
5555 5552 5549 5545 5542 5539 5536 5533 5529 5525 5522 5518 5515 5513 5510 5507 5503 5501 5498 5496 5493 5491 5488 5486 5484 5481 5479 5477 5475 5472 5470 5468 5465 5463 5461 5459 5456 5454 5451 5448 5447 5445 5442 5440 5437 5435 5432 5428 5424 5421 5420 5420 5417 5412 5408 5406 5403 5400 5396 5393 5392 5393 5392 5393 5394 5393 5392 5393 5394 5395 5396 5400 5403 5405 5405 5406 5406 5406 5407 5409 5411 5414 5417 5422 5425
5545 5542 5539 5535 5531 5528 5525 5522 5518 5514 5511 5507 5503 5500 5497 5495 5492 5490 5487 5485 5483 5481 5479 5477 5475 5472 5470 5468 5465 5463 5461 5459 5457 5454 5452 5449 5446 5443 5441 5438 5436 5433 5431 5428 5426 5423 5420 5417 5413 5409 5408 5408 5405 5398 5395 5393 5389 5386 5383 5380 5379 5379 5378 5379 5380 5379 5377 5377 5378 5378 5378 5381 5384 5385 5387 5387 5385 5385 5385 5387 5390 5394 5399 5403 5406
5533 5530 5527 5524 5520 5517 5514 5510 5507 5503 5499 5495 5491 5488 5486 5483 5481 5479 5477 5475 5473 5472 5470 5468 5465 5463 5460 5458 5456 5454 5452 5449 5447 5445 5442 5439 5436 5433 5430 5427 5425 5423 5420 5417 5414 5411 5408 5405 5402 5398 5395 5395 5393 5386 5381 5379 5376 5372 5369 5367 5365 5365 5365 5365 5367 5366 5364 5363 5363 5362 5361 5363 5365 5367 5369 5368 5365 5364 5364 5366 5370 5375 5379 5383 5387
5520 5518 5515 5512 5508 5505 5502 5499 5496 5492 5488 5485 5481 5478 5476 5473 5472 5470 5468 5466 5465 5463 5461 5459 5456 5454 5452 5449 5447 5445 5442 5440 5438 5435 5432 5429 5426 5424 5420 5417 5414 5412 5409 5406 5403 5400 5397 5393 5391 5387 5383 5382 5381 5375 5369 5366 5364 5359 5356 5353 5352 5352 5352 5352 5352 5351 5349 5348 5348 5346 5345 5345 5346 5349 5351 5350 5347 5345 5345 5348 5351 5355 5359 5363 5369
5509 5505 5503 5500 5497 5494 5491 5488 5485 5482 5479 5476 5473 5470 5467 5465 5464 5462 5460 5459 5458 5456 5453 5451 5448 5446 5443 5440 5438 5435 5433 5431 5428 5425 5422 5420 5417 5414 5410 5407 5404 5402 5400 5396 5392 5390 5387 5382 5379 5376 5371 5369 5368 5364 5357 5354 5352 5348 5343 5341 5340 5340 5340 5339 5339 5338 5336 5335 5334 5332 5330 5329 5330 5332 5333 5331 5330 5328 5327 5329 5333 5336 5339 5343 5351
5497 5494 5492 5489 5486 5483 5481 5478 5475 5473 5470 5468 5465 5462 5460 5458 5457 5455 5453 5452 5450 5448 5446 5443 5440 5438 5435 5432 5429 5426 5424 5421 5419 5416 5413 5410 5407 5404 5401 5398 5394 5391 5389 5386 5382 5379 5377 5372 5368 5365 5360 5356 5355 5353 5348 5343 5341 5337 5333 5331 5330 5330 5330 5328 5328 5327 5326 5324 5323 5321 5319 5316 5316 5317 5316 5315 5314 5311 5310 5313 5316 5317 5319 5326 5336
5487 5484 5482 5479 5476 5474 5472 5469 5467 5465 5463 5460 5458 5456 5454 5452 5450 5448 5447 5445 5443 5441 5438 5436 5433 5430 5427 5423 5420 5417 5415 5412 5409 5406 5403 5400 5397 5394 5391 5388 5385 5381 5378 5375 5371 5368 5366 5363 5358 5354 5351 5346 5343 5342 5338 5333 5330 5327 5323 5322 5321 5321 5321 5319 5318 5318 5317 5315 5314 5312 5309 5306 5304 5304 5303 5301 5300 5298 5295 5296 5298 5299 5303 5312 5320
5478 5475 5472 5470 5467 5465 5463 5461 5460 5458 5456 5453 5451 5449 5447 5445 5443 5441 5440 5438 5435 5433 5430 5428 5425 5422 5418 5415 5412 5409 5406 5402 5399 5396 5394 5390 5387 5384 5381 5378 5375 5372 5368 5365 5362 5358 5356 5353 5349 5345 5342 5338 5334 5331 5328 5324 5320 5318 5315 5313 5313 5312 5311 5311 5310 5309 5307 5306 5304 5301 5299 5296 5293 5292 5291 5289 5287 5285 5281 5280 5282 5285 5289 5296 5300
5470 5467 5465 5462 5459 5457 5455 5454 5452 5450 5448 5447 5445 5443 5441 5438 5436 5435 5433 5430 5428 5425 5422 5420 5416 5413 5410 5406 5403 5400 5396 5393 5390 5386 5384 5381 5377 5374 5371 5368 5365 5362 5359 5356 5353 5349 5346 5344 5341 5337 5334 5331 5326 5321 5318 5314 5311 5309 5306 5305 5304 5303 5302 5301 5301 5299 5297 5295 5292 5289 5286 5283 5280 5279 5278 5276 5275 5273 5269 5267 5269 5271 5273 5277 5280
5461 5459 5457 5454 5452 5450 5448 5446 5445 5443 5441 5439 5437 5435 5433 5431 5429 5427 5425 5423 5421 5417 5414 5411 5408 5404 5401 5397 5394 5391 5387 5384 5380 5377 5375 5372 5368 5365 5361 5358 5355 5352 5349 5347 5344 5340 5337 5335 5334 5331 5327 5323 5318 5313 5308 5304 5302 5301 5299 5297 5296 5294 5293 5291 5290 5289 5286 5284 5281 5278 5274 5271 5268 5265 5264 5262 5261 5259 5256 5256 5256 5257 5258 5260 5261
5452 5450 5449 5447 5445 5443 5441 5439 5438 5436 5434 5432 5430 5428 5426 5423 5422 5420 5418 5415 5413 5409 5406 5403 5399 5396 5392 5388 5385 5382 5378 5375 5371 5368 5366 5362 5359 5356 5353 5349 5345 5342 5340 5338 5335 5332 5329 5327 5326 5324 5320 5316 5311 5305 5300 5296 5294 5293 5291 5289 5287 5286 5284 5282 5280 5278 5276 5273 5271 5266 5262 5258 5255 5252 5250 5248 5246 5244 5242 5242 5242 5243 5243 5244 5245
5444 5442 5440 5439 5437 5436 5434 5432 5430 5429 5427 5425 5423 5420 5418 5416 5414 5412 5410 5407 5404 5401 5398 5394 5390 5387 5383 5380 5377 5373 5370 5366 5363 5359 5357 5353 5350 5347 5344 5340 5337 5333 5331 5329 5327 5324 5322 5320 5318 5316 5313 5309 5304 5298 5293 5289 5286 5285 5284 5281 5279 5277 5275 5272 5269 5267 5265 5262 5258 5254 5249 5244 5241 5237 5235 5233 5232 5230 5228 5226 5227 5227 5228 5229 5231
5436 5434 5432 5431 5429 5428 5426 5424 5423 5421 5419 5417 5415 5413 5410 5408 5406 5404 5401 5399 5396 5392 5389 5385 5381 5378 5374 5371 5368 5365 5361 5357 5354 5350 5348 5345 5341 5339 5336 5332 5328 5325 5323 5321 5319 5317 5315 5312 5310 5308 5305 5302 5298 5293 5288 5283 5279 5278 5276 5274 5271 5269 5266 5262 5259 5257 5254 5250 5247 5243 5238 5233 5228 5223 5219 5217 5216 5216 5214 5212 5212 5212 5213 5216 5219
5430 5428 5425 5423 5421 5420 5418 5416 5415 5413 5411 5409 5407 5404 5402 5400 5397 5395 5393 5390 5387 5383 5380 5376 5373 5369 5366 5363 5360 5356 5353 5349 5346 5342 5339 5336 5333 5330 5327 5324 5320 5317 5316 5313 5311 5310 5308 5305 5303 5301 5298 5295 5292 5287 5282 5278 5274 5271 5268 5266 5263 5261 5258 5255 5252 5248 5245 5241 5238 5235 5230 5224 5218 5211 5205 5202 5201 5201 5201 5200 5199 5198 5199 5203 5205
5423 5421 5418 5416 5414 5412 5410 5409 5407 5405 5403 5401 5398 5395 5393 5391 5389 5386 5384 5381 5377 5374 5371 5367 5364 5361 5357 5354 5351 5348 5344 5341 5338 5335 5332 5329 5326 5322 5319 5316 5312 5309 5308 5307 5305 5303 5301 5298 5296 5294 5291 5288 5285 5281 5276 5272 5268 5265 5262 5259 5256 5253 5250 5247 5244 5241 5238 5234 5231 5228 5222 5216 5208 5201 5195 5191 5188 5188 5188 5187 5187 5187 5187 5189 5191
5415 5413 5411 5409 5406 5404 5403 5401 5399 5397 5395 5392 5389 5386 5384 5382 5380 5377 5375 5372 5368 5365 5362 5358 5355 5352 5349 5346 5342 5339 5336 5333 5330 5328 5325 5322 5318 5314 5311 5309 5306 5302 5300 5299 5298 5297 5294 5292 5289 5286 5283 5280 5277 5273 5269 5265 5261 5258 5254 5251 5248 5245 5242 5239 5236 5232 5229 5226 5223 5218 5212 5206 5198 5191 5186 5182 5179 5177 5176 5176 5176 5176 5176 5177 5179
5407 5404 5403 5401 5398 5396 5395 5393 5391 5389 5386 5383 5380 5377 5375 5373 5371 5368 5366 5363 5359 5357 5353 5350 5346 5344 5340 5338 5334 5331 5328 5325 5322 5320 5318 5315 5312 5307 5302 5301 5299 5297 5294 5292 5291 5289 5287 5284 5282 5278 5275 5271 5268 5265 5261 5257 5253 5250 5246 5243 5239 5236 5232 5229 5226 5222 5219 5216 5212 5207 5201 5195 5187 5181 5176 5173 5170 5167 5166 5165 5165 5165 5166 5167 5169
5398 5396 5394 5392 5390 5388 5386 5384 5382 5380 5378 5375 5372 5369 5366 5365 5362 5359 5357 5353 5350 5348 5345 5341 5338 5335 5332 5329 5326 5323 5321 5318 5315 5312 5310 5308 5306 5302 5297 5293 5291 5290 5289 5286 5284 5283 5281 5278 5275 5272 5269 5265 5261 5258 5254 5250 5246 5242 5239 5235 5232 5228 5224 5220 5216 5213 5210 5207 5202 5198 5193 5186 5178 5172 5167 5164 5161 5159 5158 5157 5156 5156 5157 5158 5160